Location: ?????????
(41.2286°N, 23.0068°E)
Time: 08:33:12
(UTC+00:00)

Gbstr 26 Del rocket - Pass Details

Date: 08 November 2025
Orbit: 489 x 1220 km, 51.8° (Epoch: 05 December)

Event Time Altitude Azimuth Distance (km) Brightness Sun altitude
Exits shadow 03:58:23 20° 284° (WNW) 1,637 4.6 -13.3°
Maximum altitude 04:01:27 39° 342° (NNW) 1,169 4.2 -12.8°
Drops below altitude 10° 04:07:03 10° 50° (NE) 2,593 6.8 -11.7°
Sets 04:10:06 0° 58° (ENE) 3,669 7.8 -11.2°
